User: anonymous   Login
Location: Haliburton Scout Reserve
(45.0900°N, 78.3200°W)
Time: 13:16:02
(UTC-04:00)
Language:

XW-2A - Orbit

View from above orbital plane
View from above orbital plane
View from above satellite
View from above satellite

Ground track
Ground track

The orbit data is extracted from the following two-line orbital elements,

1 40903U 15049E   22137.46905344  .00025522  00000-0  42287-3 0  9997
2 40903  97.1817 195.9808 0008837 225.3452 232.3004 15.52104193374458
Epoch (UTC): 17 May 2022 11:15:26
Eccentricity: 0.0008837
inclination: 97.1817°
perigee height: 404 km
apogee height: 416 km
right ascension of ascending node: 195.9808°
argument of perigee: 225.3452°
revolutions per day: 15.52104193
mean anomaly at epoch: 232.3004°
orbit number at epoch: 37445

The dashed part of the orbit path shows where the satellite is in the earth's shadow,  

DLR